Regional Weather Roundup
Issued by NWS

Home | Current Version | Previous Version | Graphics & Text | Print | Product List | Glossary On
Versions: 1 2 3 4 5 6 7 8 9 10 11 12 13 14 15 16 17 18 19 20 21 22 23 24 25 26 27 28 29 30 31 32 33 34 35 36 37 38 39 40 41 42 43 44 45 46 47 48 49 50
000
ASUS43 KBIS 251702
RWRND

NORTH DAKOTA REGIONAL WEATHER ROUNDUP
NATIONAL WEATHER SERVICE BISMARCK ND
1200 PM CDT SUN JUN 25 2017

NOTE: "FAIR" INDICATES FEW OR NO CLOUDS BELOW 12,000 FEET WITH NO
SIGNIFICANT WEATHER AND/OR OBSTRUCTIONS TO VISIBILITY.


NDZ001>003-009>011-017-251800-
NORTHWEST NORTH DAKOTA

CITY           SKY/WX    TMP DP  RH WIND       PRES   REMARKS
WILLISTON      SUNNY     66  47  50 E5        30.28S
MINOT          CLOUDY    64  45  49 VRB5      30.24R
MINOT AFB      MOSUNNY   64  46  50 CALM      30.23S
$$

NDZ018>021-031>035-040>046-251800-
SOUTHWEST NORTH DAKOTA

CITY           SKY/WX    TMP DP  RH WIND       PRES   REMARKS
BISMARCK       LGT RAIN  55  44  66 W6        30.30R
DICKINSON      CLOUDY    63  34  33 N12       30.27S
GARRISON         N/A     60  52  74 VRB6      30.25S
HETTINGER ARPT MOSUNNY   71  31  22 W12       30.26F
$$

NDZ004>008-012>016-024-026-027-054-251800-
NORTHEAST NORTH DAKOTA

CITY           SKY/WX    TMP DP  RH WIND       PRES   REMARKS
GRAND FORKS    PTSUNNY   61  44  53 NW10G20   30.22S
GRND FRKS AFB  SUNNY     62  45  53 N13       30.23S
DEVILS LAKE    CLOUDY    60  44  55 N7        30.25S
$$

NDZ022-023-025-028>030-036>039-047>053-251800-
SOUTHEAST NORTH DAKOTA

CITY           SKY/WX    TMP DP  RH WIND       PRES   REMARKS
FARGO          PTSUNNY   63  43  48 NW13      30.23S
JAMESTOWN      CLOUDY    59  43  55 NW8       30.25F
$$




USA.gov is the U.S. government's official web portal to all federal, state and local government web resources and services.